Weather History for KMIA - March, 2014

Change the Weather History Date:

Wednesday, March 5, 2014

  Actual Average Record
Temperature  
Mean Temperature 78 °F 72 °F  
Max Temperature 84 °F 80 °F 90 °F (1964)
Min Temperature 72 °F 64 °F 44 °F (1930)
Degree Days  
Heating Degree Days 0 1  
Month to date heating degree days 0 5  
Since 1 July heating degree days 61 121  
Cooling Degree Days 13 7  
Month to date cooling degree days 44 35  
Year to date cooling degree days 465 357  
Growing Degree Days 28 (Base 50)    
Moisture  
Dew Point 68 °F    
Average Humidity 73    
Maximum Humidity 87    
Minimum Humidity 58    
Precipitation  
Precipitation T in 0.08 in 1.40 in (2008)
Month to date precipitation T 0.41  
Year to date precipitation 3.07 4.28  
Snow  
Snow 0.00 in - - ()
Month to date snowfall 0.0  
Since 1 July snowfall 0.0  
Snow Depth 0.00 in    
Sea Level Pressure  
Sea Level Pressure 30.00 in    
Wind  
Wind Speed 8 mph (SE)    
Max Wind Speed 18 mph    
Max Gust Speed 27 mph    
Visibility 10 miles    
Events      
T = Trace of Precipitation, MM = Missing Value Source: NWS Daily Summary

Daily Weather History Graph

Daily Weather History Graph

Search for Another Location

Airport or City:

Trip Planner

Search our weather history database for the weather conditions in past years. The results will help you decide how hot, cold, wet, or windy it might be!

Date:

Astronomy

Mar. 05, 2014 Rise Set
Actual Time 6:40 AM EST 6:25 PM EST
Civil Twilight 6:17 AM EST 6:48 PM EST
Nautical Twilight 5:50 AM EST 7:14 PM EST
Astronomical Twilight 5:24 AM EST 7:41 PM EST
Moon 9:34 AM EST (3/5) 11:00 PM EST (3/5)
Length of Visible Light 12h 30m
Length of Day
11h 44m
Waxing Crescent, 23% of the Moon is Illuminated
Mar 5
Waxing Crescent
Mar 8
First Quarter
Mar 16
Full
Mar 23
Last Quarter
Mar 30
New

Hourly Weather History & Observations

Time (EST) Temp. Heat Index Dew Point Humidity Pressure Visibility Wind Dir Wind Speed Gust Speed Precip Events Conditions
12:53 AM 73.9 °F - 64.9 °F 73% 30.02 in 10.0 mi SE 5.8 mph - N/A   Scattered Clouds
1:53 AM 73.0 °F - 64.9 °F 76% 29.99 in 10.0 mi ESE 5.8 mph - N/A   Partly Cloudy
2:53 AM 73.9 °F - 64.0 °F 71% 29.98 in 10.0 mi SE 8.1 mph - N/A   Partly Cloudy
3:53 AM 73.0 °F - 64.9 °F 76% 29.97 in 10.0 mi SE 6.9 mph - N/A   Partly Cloudy
4:53 AM 73.9 °F - 66.0 °F 76% 29.98 in 10.0 mi SE 5.8 mph - N/A   Scattered Clouds
5:53 AM 73.0 °F - 66.0 °F 79% 30.00 in 10.0 mi SE 6.9 mph - N/A   Scattered Clouds
6:53 AM 73.9 °F - 66.0 °F 76% 30.01 in 10.0 mi SSE 4.6 mph - N/A   Mostly Cloudy
7:53 AM 73.9 °F - 66.9 °F 79% 30.03 in 10.0 mi Calm Calm - N/A   Mostly Cloudy
8:53 AM 78.1 °F - 68.0 °F 71% 30.05 in 10.0 mi Variable 6.9 mph - N/A   Mostly Cloudy
9:53 AM 79.0 °F - 68.0 °F 69% 30.06 in 10.0 mi SE 8.1 mph - N/A   Mostly Cloudy
10:53 AM 81.0 °F 83.3 °F 66.9 °F 62% 30.05 in 10.0 mi ESE 10.4 mph - N/A   Mostly Cloudy
11:53 AM 82.0 °F 84.9 °F 68.0 °F 62% 30.03 in 10.0 mi SE 11.5 mph - N/A   Clear
12:53 PM 82.0 °F 84.5 °F 66.9 °F 60% 29.99 in 10.0 mi ESE 13.8 mph 21.9 mph N/A   Mostly Cloudy
1:53 PM 82.9 °F 85.4 °F 66.9 °F 58% 29.96 in 10.0 mi SSE 12.7 mph 20.7 mph N/A   Mostly Cloudy
2:53 PM 80.1 °F 82.9 °F 69.1 °F 69% 29.95 in 10.0 mi SSE 11.5 mph 21.9 mph N/A   Mostly Cloudy
3:53 PM 81.0 °F 84.1 °F 69.1 °F 67% 29.94 in 10.0 mi SSE 12.7 mph 21.9 mph 0.00 in   Mostly Cloudy
4:53 PM 78.1 °F - 69.1 °F 74% 29.95 in 10.0 mi ESE 16.1 mph - N/A   Mostly Cloudy
5:53 PM 75.9 °F - 68.0 °F 76% 29.97 in 10.0 mi ESE 8.1 mph - N/A   Mostly Cloudy
6:53 PM 75.9 °F - 69.1 °F 79% 29.96 in 10.0 mi SE 8.1 mph - N/A   Scattered Clouds
7:53 PM 75.0 °F - 70.0 °F 84% 29.98 in 10.0 mi SSE 6.9 mph - N/A   Scattered Clouds
8:53 PM 75.0 °F - 70.0 °F 84% 30.00 in 10.0 mi SSE 5.8 mph - N/A   Mostly Cloudy
9:53 PM 75.0 °F - 71.1 °F 87% 30.01 in 10.0 mi SE 4.6 mph - N/A   Mostly Cloudy
10:53 PM 75.0 °F - 71.1 °F 87% 30.02 in 10.0 mi Calm Calm - N/A   Overcast
11:53 PM 75.0 °F - 71.1 °F 87% 30.02 in 10.0 mi Calm Calm - N/A   Overcast